User: anonymous   Login
Location: Sternwarte Hubelmatt
(47.0367°N, 8.3053°E)
Time: 21:07:15
(UTC+02:00)
Language:

First-Move - Orbit

View from above orbital plane
View from above orbital plane
View from above satellite
View from above satellite

Ground track
Ground track

The orbit data is extracted from the following two-line orbital elements,

1 39439U 13066Z   24112.87511174  .00037253  00000-0  30787-2 0  9995
2 39439  97.7185  76.9368 0047110 327.6052  32.2279 14.97954948562440
Epoch (UTC): 21 April 2024 21:00:09
Eccentricity: 0.0047110
inclination: 97.7185°
perigee height: 540 km
apogee height: 606 km
right ascension of ascending node: 76.9368°
argument of perigee: 327.6052°
revolutions per day: 14.97954948
mean anomaly at epoch: 32.2279°
orbit number at epoch: 56244

The dashed part of the orbit path shows where the satellite is in the earth's shadow,  

DLR